Time,TemperatureF,DewpointF,PressureIn,WindDirection,WindDirectionDegrees,WindSpeedMPH,WindSpeedGustMPH,Humidity,HourlyPrecipIn,Conditions,Clouds,dailyrainin,SolarRadiationWatts/m^2,SoftwareType,DateUTC
2013-12-08 00:13:00,29.8,28.0,30.33,ENE,73,2.0,3.0,92,0.00,,,0.00,0,weatherlink.com 1.10,2013-12-08 05:13:00,
2013-12-08 00:28:00,29.9,28.0,30.30,East,96,1.0,6.0,92,0.00,,,0.00,0,weatherlink.com 1.10,2013-12-08 05:28:00,
2013-12-08 00:43:00,29.9,28.0,30.29,East,99,1.0,5.0,92,0.00,,,0.00,0,weatherlink.com 1.10,2013-12-08 05:43:00,
2013-12-08 00:58:00,30.0,28.0,30.27,East,81,1.0,3.0,92,0.00,,,0.00,0,weatherlink.com 1.10,2013-12-08 05:58:00,
2013-12-08 01:13:00,30.1,28.0,30.29,NNE,32,1.0,3.0,92,0.00,,,0.00,0,weatherlink.com 1.10,2013-12-08 06:13:00,
2013-12-08 01:28:00,30.1,28.0,30.28,NE,54,0.0,2.0,92,0.00,,,0.00,0,weatherlink.com 1.10,2013-12-08 06:28:00,
2013-12-08 01:43:00,30.2,29.0,30.27,ENE,73,1.0,3.0,93,0.00,,,0.00,0,weatherlink.com 1.10,2013-12-08 06:43:00,
2013-12-08 01:58:00,30.2,29.0,30.26,NE,55,1.0,5.0,94,0.00,,,0.00,0,weatherlink.com 1.10,2013-12-08 06:58:00,
2013-12-08 02:13:00,30.4,29.0,30.24,East,98,0.0,3.0,95,0.00,,,0.00,0,weatherlink.com 1.10,2013-12-08 07:13:00,
2013-12-08 02:28:00,30.4,29.0,30.23,NE,34,1.0,4.0,95,0.00,,,0.00,0,weatherlink.com 1.10,2013-12-08 07:28:00,
2013-12-08 02:43:00,30.3,29.0,30.22,East,84,2.0,4.0,96,0.00,,,0.00,0,weatherlink.com 1.10,2013-12-08 07:43:00,
2013-12-08 02:58:00,30.5,30.0,30.21,ENE,59,1.0,7.0,96,0.00,,,0.00,0,weatherlink.com 1.10,2013-12-08 07:58:00,
2013-12-08 03:13:00,30.8,30.0,30.22,East,92,0.0,5.0,97,0.00,,,0.00,0,weatherlink.com 1.10,2013-12-08 08:13:00,
2013-12-08 03:28:00,30.9,30.0,30.23,East,101,0.0,3.0,97,0.00,,,0.00,0,weatherlink.com 1.10,2013-12-08 08:28:00,
2013-12-08 03:43:00,31.0,30.0,30.22,NE,42,1.0,3.0,97,0.00,,,0.00,0,weatherlink.com 1.10,2013-12-08 08:43:00,
2013-12-08 03:58:00,31.3,31.0,30.21,East,96,0.0,2.0,97,0.00,,,0.00,0,weatherlink.com 1.10,2013-12-08 08:58:00,
2013-12-08 04:13:00,31.3,31.0,30.21,East,93,0.0,5.0,98,0.00,,,0.00,0,weatherlink.com 1.10,2013-12-08 09:13:00,
2013-12-08 04:28:00,31.4,31.0,30.20,ESE,108,2.0,3.0,98,0.00,,,0.00,0,weatherlink.com 1.10,2013-12-08 09:28:00,
2013-12-08 04:43:00,31.4,31.0,30.20,East,100,1.0,2.0,98,0.00,,,0.00,0,weatherlink.com 1.10,2013-12-08 09:43:00,
2013-12-08 04:58:00,31.4,31.0,30.18,East,92,2.0,3.0,98,0.00,,,0.00,0,weatherlink.com 1.10,2013-12-08 09:58:00,
2013-12-08 05:13:00,31.4,31.0,30.18,ESE,105,1.0,3.0,98,0.00,,,0.00,0,weatherlink.com 1.10,2013-12-08 10:13:00,
2013-12-08 05:28:00,31.6,31.0,30.17,ENE,60,1.0,2.0,98,0.00,,,0.00,0,weatherlink.com 1.10,2013-12-08 10:28:00,
2013-12-08 05:43:00,31.6,31.0,30.17,ENE,60,0.0,1.0,98,0.00,,,0.00,0,weatherlink.com 1.10,2013-12-08 10:43:00,
2013-12-08 05:58:00,31.7,31.0,30.16,ESE,111,0.0,3.0,98,0.00,,,0.00,0,weatherlink.com 1.10,2013-12-08 10:58:00,
2013-12-08 06:13:00,31.8,31.0,30.18,East,97,1.0,1.0,98,0.00,,,0.00,0,weatherlink.com 1.10,2013-12-08 11:13:00,
2013-12-08 06:28:00,31.8,31.0,30.19,East,100,1.0,2.0,98,0.00,,,0.00,0,weatherlink.com 1.10,2013-12-08 11:28:00,
2013-12-08 06:43:00,31.9,31.0,30.19,North,9,2.0,3.0,98,0.00,,,0.00,0,weatherlink.com 1.10,2013-12-08 11:43:00,
2013-12-08 06:58:00,31.9,31.0,30.15,East,101,2.0,5.0,98,0.00,,,0.00,0,weatherlink.com 1.10,2013-12-08 11:58:00,
2013-12-08 07:13:00,31.9,31.0,30.14,ESE,115,0.0,1.0,98,0.00,,,0.00,0,weatherlink.com 1.10,2013-12-08 12:13:00,
2013-12-08 07:28:00,32.0,32.0,30.14,East,100,1.0,3.0,98,0.00,,,0.00,0,weatherlink.com 1.10,2013-12-08 12:28:00,
2013-12-08 07:43:00,32.0,32.0,30.13,East,100,1.0,2.0,98,0.00,,,0.00,0,weatherlink.com 1.10,2013-12-08 12:43:00,
2013-12-08 07:58:00,32.1,32.0,30.14,East,100,1.0,2.0,99,0.00,,,0.00,0,weatherlink.com 1.10,2013-12-08 12:58:00,
2013-12-08 08:13:00,32.1,32.0,30.12,East,100,1.0,2.0,99,0.00,,,0.00,0,weatherlink.com 1.10,2013-12-08 13:13:00,
2013-12-08 08:28:00,32.1,32.0,30.12,East,100,0.0,1.0,99,0.00,,,0.00,0,weatherlink.com 1.10,2013-12-08 13:28:00,
2013-12-08 08:43:00,32.2,32.0,30.12,East,100,0.0,0.0,99,0.00,,,0.00,9,weatherlink.com 1.10,2013-12-08 13:43:00,
2013-12-08 08:58:00,32.3,32.0,30.15,North,9,0.0,4.0,99,0.00,,,0.00,5,weatherlink.com 1.10,2013-12-08 13:58:00,
2013-12-08 09:13:00,32.3,32.0,30.18,WNW,290,1.0,3.0,99,0.00,,,0.00,7,weatherlink.com 1.10,2013-12-08 14:13:00,
2013-12-08 09:29:00,32.2,32.0,30.14,East,100,0.0,3.0,99,0.00,,,0.00,14,weatherlink.com 1.10,2013-12-08 14:29:00,
2013-12-08 09:44:00,32.2,32.0,30.14,SE,131,1.0,2.0,99,0.00,,,0.00,26,weatherlink.com 1.10,2013-12-08 14:44:00,
2013-12-08 09:59:00,32.3,32.0,30.15,SE,131,0.0,1.0,99,0.00,,,0.00,30,weatherlink.com 1.10,2013-12-08 14:59:00,
2013-12-08 10:14:00,32.3,32.0,30.15,SE,131,0.0,1.0,99,0.00,,,0.00,40,weatherlink.com 1.10,2013-12-08 15:14:00,
2013-12-08 10:29:00,32.4,32.0,30.17,SE,131,0.0,0.0,99,0.00,,,0.00,32,weatherlink.com 1.10,2013-12-08 15:29:00,
2013-12-08 10:44:00,32.5,32.0,30.16,SE,131,0.0,0.0,99,0.00,,,0.00,39,weatherlink.com 1.10,2013-12-08 15:44:00,
2013-12-08 10:59:00,32.5,32.0,30.15,SE,131,0.0,0.0,99,0.00,,,0.00,42,weatherlink.com 1.10,2013-12-08 15:59:00,
2013-12-08 11:14:00,32.6,32.0,30.14,ESE,113,0.0,1.0,99,0.00,,,0.00,51,weatherlink.com 1.10,2013-12-08 16:14:00,
2013-12-08 11:29:00,32.7,33.0,30.13,SE,133,0.0,2.0,99,0.00,,,0.00,42,weatherlink.com 1.10,2013-12-08 16:29:00,
2013-12-08 11:44:00,32.9,33.0,30.12,ESE,110,0.0,2.0,99,0.00,,,0.00,58,weatherlink.com 1.10,2013-12-08 16:44:00,
2013-12-08 11:59:00,33.0,33.0,30.11,ESE,110,0.0,2.0,99,0.00,,,0.00,49,weatherlink.com 1.10,2013-12-08 16:59:00,
2013-12-08 12:14:00,33.2,33.0,30.09,ESE,108,1.0,1.0,99,0.00,,,0.00,69,weatherlink.com 1.10,2013-12-08 17:14:00,
2013-12-08 12:29:00,33.5,33.0,30.09,SE,126,1.0,3.0,99,0.00,,,0.00,77,weatherlink.com 1.10,2013-12-08 17:29:00,
2013-12-08 12:44:00,33.8,34.0,30.07,ESE,117,0.0,3.0,99,0.00,,,0.00,58,weatherlink.com 1.10,2013-12-08 17:44:00,
2013-12-08 12:59:00,34.3,34.0,30.07,ESE,117,1.0,1.0,99,0.00,,,0.00,70,weatherlink.com 1.10,2013-12-08 17:59:00,
2013-12-08 13:14:00,34.8,35.0,30.05,ESE,119,0.0,3.0,100,0.00,,,0.00,88,weatherlink.com 1.10,2013-12-08 18:14:00,
2013-12-08 13:29:00,35.3,35.0,30.05,ESE,119,0.0,1.0,100,0.00,,,0.00,58,weatherlink.com 1.10,2013-12-08 18:29:00,
2013-12-08 13:44:00,35.5,36.0,30.04,ESE,119,0.0,2.0,100,0.01,,,0.01,65,weatherlink.com 1.10,2013-12-08 18:44:00,
2013-12-08 13:59:00,35.9,36.0,30.04,SSE,157,1.0,2.0,100,0.26,,,0.26,63,weatherlink.com 1.10,2013-12-08 18:59:00,
2013-12-08 14:14:00,36.6,37.0,30.02,SSE,157,0.0,2.0,100,0.26,,,0.26,95,weatherlink.com 1.10,2013-12-08 19:14:00,
2013-12-08 14:29:00,37.1,37.0,30.02,SE,130,1.0,2.0,100,0.26,,,0.26,72,weatherlink.com 1.10,2013-12-08 19:29:00,
2013-12-08 14:44:00,37.5,38.0,30.02,SSE,158,0.0,2.0,100,0.25,,,0.26,58,weatherlink.com 1.10,2013-12-08 19:44:00,
2013-12-08 14:59:00,37.6,38.0,30.02,SW,234,1.0,3.0,100,0.00,,,0.26,33,weatherlink.com 1.10,2013-12-08 19:59:00,
2013-12-08 15:14:00,37.7,38.0,30.01,WNW,288,0.0,2.0,100,0.00,,,0.26,46,weatherlink.com 1.10,2013-12-08 20:14:00,
2013-12-08 15:29:00,38.0,38.0,30.02,West,261,0.0,2.0,100,0.00,,,0.26,26,weatherlink.com 1.10,2013-12-08 20:29:00,
2013-12-08 15:44:00,38.6,39.0,30.01,SW,232,0.0,0.0,100,0.00,,,0.26,28,weatherlink.com 1.10,2013-12-08 20:44:00,
2013-12-08 15:59:00,38.9,39.0,30.02,WSW,243,0.0,4.0,100,0.00,,,0.26,14,weatherlink.com 1.10,2013-12-08 20:59:00,
2013-12-08 16:14:00,39.1,39.0,30.02,WSW,258,2.0,4.0,100,0.00,,,0.26,19,weatherlink.com 1.10,2013-12-08 21:14:00,
2013-12-08 16:29:00,39.3,39.0,30.03,WSW,240,4.0,4.0,100,0.00,,,0.26,16,weatherlink.com 1.10,2013-12-08 21:29:00,
2013-12-08 16:44:00,39.3,39.0,30.02,WSW,240,3.0,4.0,100,0.00,,,0.26,14,weatherlink.com 1.10,2013-12-08 21:44:00,
2013-12-08 16:59:00,39.4,39.0,30.01,SSW,194,0.0,3.0,100,0.00,,,0.26,11,weatherlink.com 1.10,2013-12-08 21:59:00,
2013-12-08 17:14:00,39.4,39.0,30.00,South,186,0.0,4.0,100,0.00,,,0.26,0,weatherlink.com 1.10,2013-12-08 22:14:00,
2013-12-08 17:29:00,39.5,40.0,29.99,WSW,248,0.0,5.0,100,0.00,,,0.26,0,weatherlink.com 1.10,2013-12-08 22:29:00,
2013-12-08 17:44:00,39.4,39.0,30.00,SSE,168,2.0,2.0,100,0.00,,,0.26,0,weatherlink.com 1.10,2013-12-08 22:44:00,
2013-12-08 17:59:00,39.6,40.0,30.00,SW,227,3.0,4.0,100,0.00,,,0.26,0,weatherlink.com 1.10,2013-12-08 22:59:00,
2013-12-08 18:14:00,39.7,40.0,30.00,SW,231,2.0,6.0,100,0.00,,,0.26,0,weatherlink.com 1.10,2013-12-08 23:14:00,
2013-12-08 18:29:00,39.8,40.0,30.00,SW,230,0.0,8.0,100,0.00,,,0.26,0,weatherlink.com 1.10,2013-12-08 23:29:00,
2013-12-08 18:44:00,39.8,40.0,29.99,SSW,205,2.0,5.0,100,0.00,,,0.26,0,weatherlink.com 1.10,2013-12-08 23:44:00,
2013-12-08 18:59:00,40.0,40.0,30.00,SW,224,3.0,7.0,100,0.00,,,0.26,0,weatherlink.com 1.10,2013-12-08 23:59:00,
2013-12-08 19:14:00,40.1,40.0,29.99,SW,216,2.0,6.0,100,0.00,,,0.26,0,weatherlink.com 1.10,2013-12-09 00:14:00,
2013-12-08 19:29:00,40.4,40.0,29.98,SW,231,4.0,7.0,100,0.00,,,0.26,0,weatherlink.com 1.10,2013-12-09 00:29:00,
2013-12-08 19:45:00,40.8,41.0,29.98,SSW,197,5.0,7.0,100,0.00,,,0.26,0,weatherlink.com 1.10,2013-12-09 00:45:00,
2013-12-08 20:00:00,41.3,41.0,29.98,West,261,4.0,9.0,100,0.00,,,0.26,0,weatherlink.com 1.10,2013-12-09 01:00:00,
2013-12-08 20:15:00,41.4,41.0,29.98,SW,221,3.0,9.0,100,0.00,,,0.26,0,weatherlink.com 1.10,2013-12-09 01:15:00,
2013-12-08 20:30:00,41.6,42.0,30.00,WSW,238,5.0,10.0,100,0.00,,,0.26,0,weatherlink.com 1.10,2013-12-09 01:30:00,
2013-12-08 20:45:00,41.7,42.0,29.99,SW,225,3.0,9.0,99,0.00,,,0.26,0,weatherlink.com 1.10,2013-12-09 01:45:00,
2013-12-08 21:00:00,41.6,41.0,29.97,SSE,158,1.0,5.0,99,0.02,,,0.28,0,weatherlink.com 1.10,2013-12-09 02:00:00,
2013-12-08 21:15:00,41.5,41.0,29.99,WSW,248,2.0,3.0,99,0.02,,,0.28,0,weatherlink.com 1.10,2013-12-09 02:15:00,
2013-12-08 21:30:00,41.5,41.0,29.98,WSW,240,2.0,3.0,99,0.03,,,0.29,0,weatherlink.com 1.10,2013-12-09 02:30:00,
2013-12-08 21:45:00,41.6,41.0,29.99,WSW,242,3.0,5.0,99,0.05,,,0.31,0,weatherlink.com 1.10,2013-12-09 02:45:00,
2013-12-08 22:00:00,41.6,41.0,29.99,WSW,239,2.0,5.0,99,0.03,,,0.31,0,weatherlink.com 1.10,2013-12-09 03:00:00,
2013-12-08 22:15:00,41.7,42.0,30.00,SW,221,4.0,6.0,99,0.04,,,0.32,0,weatherlink.com 1.10,2013-12-09 03:15:00,
2013-12-08 22:30:00,41.7,42.0,29.99,WSW,254,3.0,6.0,99,0.05,,,0.34,0,weatherlink.com 1.10,2013-12-09 03:30:00,
2013-12-08 22:45:00,41.6,41.0,30.00,SW,217,4.0,7.0,99,0.03,,,0.34,0,weatherlink.com 1.10,2013-12-09 03:45:00,
2013-12-08 23:00:00,41.6,41.0,29.99,West,268,2.0,5.0,99,0.03,,,0.34,0,weatherlink.com 1.10,2013-12-09 04:00:00,
2013-12-08 23:15:00,41.6,41.0,30.00,WSW,244,2.0,5.0,99,0.02,,,0.34,0,weatherlink.com 1.10,2013-12-09 04:15:00,
2013-12-08 23:30:00,41.6,41.0,30.01,West,267,2.0,5.0,99,0.00,,,0.34,0,weatherlink.com 1.10,2013-12-09 04:30:00,
2013-12-08 23:45:00,41.5,41.0,30.00,WSW,252,5.0,6.0,99,0.00,,,0.34,0,weatherlink.com 1.10,2013-12-09 04:45:00,